FW3961 Weather Reports


time (UTC)temp
C
wind
direction
speed
KPH
gust
KPH
rain 1hr
cm
rain 24hr
cm
rain mn
cm
humidity
%
barometer
mb
20260504050649 23 299 0.0 1.6 0.00 0.00 0.00 47 1009.2
20260504050142 23 296 0.0 4.8 0.00 0.00 0.00 47 1009.0
20260504045635 23 296 0.0 6.4 0.00 0.00 0.00 46 1009.0
20260504045131 23 293 0.0 6.4 0.00 0.00 0.00 46 1009.0
20260504044624 23 326 0.0 3.2 0.00 0.00 0.00 46 1009.0
20260504044118 23 327 0.0 8.0 0.00 0.00 0.00 46 1008.8
20260504043612 23 302 0.0 8.0 0.00 0.00 0.00 46 1008.8
20260504043107 23 296 0.0 3.2 0.00 0.00 0.00 46 1008.8
20260504042600 23 296 0.0 3.2 0.00 0.00 0.00 45 1008.7
20260504042054 24 304 0.0 3.2 0.00 0.00 0.00 46 1008.6
20260504042050 24 286 0.0 3.2 0.00 0.00 0.00 47 1008.7
20260504041042 25 286 0.0 3.2 0.00 0.00 0.00 46 1008.5
20260504040537 25 284 0.0 4.8 0.00 0.00 0.00 46 1008.4
20260504040030 25 355 0.0 4.8 0.00 0.00 0.00 46 1008.5
20260504035524 25 336 0.0 3.2 0.00 0.00 0.00 46 1008.5
20260504035017 25 69 0.0 9.7 0.00 0.00 0.00 45 1008.5
20260504034512 26 71 1.6 9.7 0.00 0.00 0.00 44 1008.5
20260504034007 26 293 1.6 6.4 0.00 0.00 0.00 44 1008.3
20260504034002 26 261 0.0 4.8 0.00 0.00 0.00 44 1008.4
20260504032954 26 262 1.6 4.8 0.00 0.00 0.00 43 1008.3
20260504032449 26 250 1.6 4.8 0.00 0.00 0.00 43 1008.3
20260504031943 27 300 0.0 4.8 0.00 0.00 0.00 42 1008.2
20260504031435 27 300 1.6 4.8 0.00 0.00 0.00 41 1008.2
20260504030929 27 315 1.6 3.2 0.00 0.00 0.00 40 1008.1
20260504030423 28 346 0.0 3.2 0.00 0.00 0.00 39 1008.1
20260504030419 28 346 0.0 0.0 0.00 0.00 0.00 42 1008.1
20260504025416 28 346 0.0 1.6 0.00 0.00 0.00 41 1008.1
20260504024916 28 346 0.0 1.6 0.00 0.00 0.00 41 1008.1
20260504024413 28 346 0.0 1.6 0.00 0.00 0.00 39 1008.1
20260504023915 29 346 0.0 1.6 0.00 0.00 0.00 39 1008.1
20260504023413 29 346 0.0 1.6 0.00 0.00 0.00 39 1008.1
20260504022916 29 346 0.0 4.8 0.00 0.00 0.00 38 1008.2
20260504022414 29 346 0.0 4.8 0.00 0.00 0.00 38 1008.2
20260504021914 30 0 0.0 3.2 0.00 0.00 0.00 38 1008.2
20260504021413 30 0 1.6 4.8 0.00 0.00 0.00 37 1008.1
20260504020914 30 5 1.6 4.8 0.00 0.00 0.00 37 1008.2
20260504020414 30 256 1.6 3.2 0.00 0.00 0.00 36 1008.1
20260504015910 30 223 1.6 3.2 0.00 0.00 0.00 37 1008.1
20260504015409 30 247 1.6 4.8 0.00 0.00 0.00 35 1008.2
20260504014911 30 245 1.6 4.8 0.00 0.00 0.00 35 1008.2
20260504014410 30 44 0.0 3.2 0.00 0.00 0.00 35 1008.2
20260504014143 31 238 1.6 4.8 0.00 0.00 0.00 35 1008.2
20260504013410 31 284 1.6 4.8 0.00 0.00 0.00 36 1008.2
20260504012910 31 255 1.6 6.4 0.00 0.00 0.00 35 1008.2
20260504012410 31 248 1.6 6.4 0.00 0.00 0.00 33 1008.3
20260504011910 31 242 0.0 3.2 0.00 0.00 0.00 34 1008.4
20260504011405 31 296 1.6 4.8 0.00 0.00 0.00 35 1008.3
20260504010905 31 296 1.6 4.8 0.00 0.00 0.00 33 1008.3
20260504010404 31 275 1.6 4.8 0.00 0.00 0.00 32 1008.3
20260504005904 31 325 1.6 4.8 0.00 0.00 0.00 33 1008.3
20260504005410 32 15 3.2 8.0 0.00 0.00 0.00 31 1008.4
20260504005406 32 318 3.2 8.0 0.00 0.00 0.00 32 1008.3
20260504004407 32 36 3.2 9.7 0.00 0.00 0.00 31 1008.4
20260504004403 32 46 3.2 8.0 0.00 0.00 0.00 32 1008.4
20260504003401 32 269 3.2 9.7 0.00 0.00 0.00 33 1008.4
20260504002859 32 37 3.2 8.0 0.00 0.00 0.00 31 1008.4
20260504002359 32 255 1.6 6.4 0.00 0.00 0.00 31 1008.7
20260504001900 32 199 1.6 4.8 0.00 0.00 0.00 32 1008.7
20260504001358 32 348 3.2 8.0 0.00 0.00 0.00 33 1008.6
20260504000858 32 282 3.2 8.0 0.00 0.00 0.00 35 1008.7
20260504000357 32 296 1.6 6.4 0.00 0.00 0.00 31 1008.7
20260503235900 32 345 1.6 6.4 0.00 0.00 0.00 32 1008.8
20260503235356 32 355 3.2 6.4 0.00 0.00 0.00 31 1008.7
20260503234850 32 19 1.6 4.8 0.00 0.00 0.00 33 1008.7
20260503234341 32 315 1.6 6.4 0.00 0.00 0.00 35 1008.7
20260503233840 32 102 1.6 9.7 0.00 0.00 0.00 34 1008.7
20260503233836 32 5 1.6 8.0 0.00 0.00 0.00 32 1008.7
20260503232826 32 263 1.6 9.7 0.00 0.00 0.00 34 1008.8
20260503232818 32 209 1.6 8.0 0.00 0.00 0.00 37 1008.8
20260503231814 32 355 3.2 8.0 0.00 0.00 0.00 35 1008.9
20260503231306 32 303 3.2 11.3 0.00 0.00 0.00 37 1009.0
20260503230759 32 301 1.6 11.3 0.00 0.00 0.00 36 1009.1
20260503230253 31 73 3.2 6.4 0.00 0.00 0.00 37 1009.3
20260503230056 31 273 3.2 12.9 0.00 0.00 0.00 37 1009.4
20260503225247 31 5 1.6 6.4 0.00 0.00 0.00 38 1009.5
20260503225242 31 297 1.6 8.0 0.00 0.00 0.00 36 1009.5
20260503224229 31 40 1.6 8.0 0.00 0.00 0.00 41 1009.6
20260503223727 31 71 3.2 9.7 0.00 0.00 0.00 40 1009.8
20260503223723 31 286 3.2 9.7 0.00 0.00 0.00 40 1009.7
20260503222712 31 307 3.2 8.0 0.00 0.00 0.00 43 1009.9
20260503222206 30 300 3.2 9.7 0.00 0.00 0.00 43 1010.0
20260503221659 30 335 3.2 9.7 0.00 0.00 0.00 43 1010.1
20260503221152 30 336 3.2 9.7 0.00 0.00 0.00 44 1010.1
20260503220647 31 289 3.2 9.7 0.00 0.00 0.00 44 1010.2
20260503220143 31 307 3.2 9.7 0.00 0.00 0.00 45 1010.3
20260503215640 30 71 3.2 6.4 0.00 0.00 0.00 49 1010.3
20260503215635 30 342 3.2 9.7 0.00 0.00 0.00 47 1010.3
20260503214635 30 98 1.6 6.4 0.00 0.00 0.00 47 1010.3
20260503214135 30 83 3.2 11.3 0.00 0.00 0.00 47 1010.3
20260503213635 30 202 3.2 11.3 0.00 0.00 0.00 46 1010.5
20260503213137 30 63 3.2 8.0 0.00 0.00 0.00 46 1010.4
20260503212635 30 348 1.6 6.4 0.00 0.00 0.00 48 1010.6
20260503212134 30 55 1.6 4.8 0.00 0.00 0.00 48 1010.6
20260503211635 30 263 1.6 6.4 0.00 0.00 0.00 50 1010.7
20260503211135 29 183 1.6 6.4 0.00 0.00 0.00 48 1010.7
20260503210637 29 349 3.2 8.0 0.00 0.00 0.00 51 1010.8
20260503210133 28 340 3.2 8.0 0.00 0.00 0.00 47 1010.8
20260503205633 28 324 3.2 12.9 0.00 0.00 0.00 48 1010.9
20260503205140 28 37 3.2 12.9 0.00 0.00 0.00 48 1010.8
20260503204633 28 321 1.6 6.4 0.00 0.00 0.00 49 1011.0
20260503204133 28 311 1.6 6.4 0.00 0.00 0.00 50 1011.1
20260503203633 28 69 3.2 8.0 0.00 0.00 0.00 52 1011.2
20260503203127 28 62 3.2 8.0 0.00 0.00 0.00 50 1011.3
20260503202625 27 219 3.2 8.0 0.00 0.00 0.00 53 1011.3
20260503202621 27 29 3.2 8.0 0.00 0.00 0.00 52 1011.4
20260503201609 27 44 1.6 6.4 0.00 0.00 0.00 53 1011.4
20260503201335 27 15 3.2 6.4 0.00 0.00 0.00 52 1011.4
20260503200557 27 339 3.2 6.4 0.00 0.00 0.00 52 1011.5
20260503200056 27 331 3.2 6.4 0.00 0.00 0.00 54 1011.5
20260503195557 26 40 3.2 6.4 0.00 0.00 0.00 56 1011.5
20260503195057 26 320 1.6 6.4 0.00 0.00 0.00 56 1011.7
20260503194557 26 355 3.2 8.0 0.00 0.00 0.00 57 1011.6
20260503194057 26 313 1.6 8.0 0.00 0.00 0.00 58 1011.7
20260503193600 26 76 1.6 8.0 0.00 0.00 0.00 58 1011.7
20260503193055 26 298 1.6 8.0 0.00 0.00 0.00 61 1011.8
20260503192554 25 306 1.6 8.0 0.00 0.00 0.00 61 1011.9
20260503192053 25 25 1.6 6.4 0.00 0.00 0.00 59 1011.8
20260503191706 25 292 1.6 8.0 0.00 0.00 0.00 60 1012.0
20260503191552 25 310 1.6 6.4 0.00 0.00 0.00 61 1012.0
20260503191439 25 292 1.6 8.0 0.00 0.00 0.00 60 1012.0
20260503191338 25 178 3.2 8.0 0.00 0.00 0.00 62 1012.0
20260503190051 24 309 1.6 6.4 0.00 0.00 0.00 63 1012.1
20260503185549 24 355 3.2 6.4 0.00 0.00 0.00 60 1012.1
20260503185050 24 331 1.6 6.4 0.00 0.00 0.00 60 1012.2
20260503184548 23 303 1.6 8.0 0.00 0.00 0.00 63 1012.2
20260503184046 23 293 1.6 8.0 0.00 0.00 0.00 62 1012.2
20260503183545 23 184 1.6 6.4 0.00 0.00 0.00 63 1012.3
20260503183045 23 248 1.6 6.4 0.00 0.00 0.00 63 1012.2
20260503182544 23 308 1.6 6.4 0.00 0.00 0.00 64 1012.3
20260503182045 23 180 3.2 8.0 0.00 0.00 0.00 65 1012.4
20260503181546 22 19 1.6 8.0 0.00 0.00 0.00 65 1012.4
20260503181045 22 238 1.6 4.8 0.00 0.00 0.00 66 1012.5
20260503180545 22 302 1.6 6.4 0.00 0.00 0.00 67 1012.4
20260503180045 22 211 1.6 6.4 0.00 0.00 0.00 68 1012.4
20260503175551 21 26 3.2 12.9 0.00 0.03 0.00 70 1012.6
20260503175545 21 198 1.6 8.0 0.00 0.00 0.00 69 1012.5
20260503174544 21 48 3.2 12.9 0.00 0.03 0.00 68 1012.6
20260503174045 21 348 1.6 6.4 0.00 0.03 0.00 70 1012.7
20260503173545 21 306 1.6 6.4 0.00 0.03 0.00 71 1012.6
20260503173045 20 268 1.6 6.4 0.00 0.03 0.00 74 1012.6
20260503172545 20 331 1.6 6.4 0.00 0.03 0.00 75 1012.6
20260503172047 19 348 1.6 8.0 0.00 0.03 0.00 75 1012.6
20260503171544 19 331 1.6 8.0 0.00 0.03 0.00 76 1012.6
20260503171038 18 176 1.6 6.4 0.00 0.03 0.00 78 1012.6
20260503170536 18 344 1.6 8.0 0.00 0.03 0.00 78 1012.6
20260503150956 12 248 0.0 3.2 0.00 0.03 0.00 95 1013.0
20260503150948 12 248 0.0 4.8 0.00 0.03 0.00 95 1013.0
20260503131234 11 294 0.0 3.2 0.00 0.03 0.00 93 1012.6
20260503130733 11 294 0.0 0.0 0.00 0.03 0.00 93 1012.6
20260503130729 11 294 0.0 0.0 0.00 0.03 0.00 93 1012.6
20260503120219 12 294 0.0 0.0 0.00 0.03 0.00 93 1012.6
20260503110715 12 294 0.0 1.6 0.00 0.03 0.00 92 1012.7
20260503110215 12 294 0.0 3.2 0.00 0.03 0.00 92 1012.7
20260503100156 12 271 0.0 1.6 0.00 0.03 0.00 91 1012.7
20260503081451 13 327 0.0 1.6 0.00 0.03 0.00 89 1013.1
20260503080945 13 327 0.0 1.6 0.00 0.03 0.00 89 1013.1
20260503080439 13 327 0.0 1.6 0.00 0.03 0.00 88 1013.1
20260503072350 14 327 0.0 1.6 0.00 0.03 0.00 87 1013.4
20260503071847 14 327 0.0 0.0 0.00 0.03 0.00 87 1013.4
20260503071339 14 327 0.0 0.0 0.00 0.03 0.00 87 1013.6
20260503070833 14 327 0.0 0.0 0.00 0.03 0.00 87 1013.6
20260503070327 14 327 0.0 0.0 0.00 0.03 0.00 87 1013.7
20260503060222 15 327 0.0 1.6 0.00 0.03 0.03 85 1013.8